Location: Fenile
(46.0500°N, 9.5500°E)
Time: 20:57:26
(UTC+00:00)

ATLAS CENTAUR R/B - Pass Details

Date: 03 March 2021
Orbit: 475 x 670 km, 64.7° (Epoch: 30 March)

Event Time Altitude Azimuth Distance (km) Brightness Sun altitude
Rises 18:18:22 0° 204° (SSW) 2,522 5.0 -12.4°
Reaches altitude 10° 18:20:31 10° 200° (SSW) 1,640 3.9 -12.8°
Maximum altitude 18:24:04 55° 122° (ESE) 578 1.1 -13.4°
Enters shadow 18:27:02 14° 47° (NE) 1,411 3.0 -13.9°
